2001 FZ57 

Epoch 2001 Apr. 1.0 TT = JDT 2452000.5                  Nakano

M 217.13306              (2000.0)            P               Q

n   1.07428774     Peri.  339.92132     +0.99098829     -0.01370637

a   0.9441818      Node    22.17240     +0.10051974     +0.73357109

e   0.6044245      Incl.   20.67499     -0.08853243     +0.67947450

P   0.92           H   18.7           G   0.15           U   *

Residuals in seconds of arc 

010321 699  1.3-  0.8+    010326 704  0.7+  0.0     010413 413  0.5+  0.2+  

010321 699  0.5+  0.5+    010326 704  0.1+  0.2+    010413 413  0.1+  0.4+  

010321 699  0.3+  0.6+    010326 704  0.1+  0.1-    010413 413  0.1-  0.4+  

010321 699  1.1+  0.9+    010326 704  0.1+  0.5-    010416 360  0.1+  0.1-  

010324 699  0.0   0.2-    010326 704  0.1+  0.7-    010416 360  0.1-  0.3-  

010324 699  0.3-  0.8-    010330 608  0.2+  0.6-    010416 360  0.1+  0.3-  

010324 699  1.5-  1.2+    010330 608  0.3+  0.8-    010418 704  0.2+  0.8+  

010324 699  0.3+  1.0+    010330 608  0.2+  0.0     010418 704  0.2+  1.5+  

010325 859  1.7+  0.8-    010405 413  0.2-  0.1+    010418 704  0.4-  1.1+  

010325 859  0.7-  1.1-    010405 413  0.2-  0.2+    010418 704  0.5-  0.8+  

010325 859  0.2+  0.8-    010405 413  0.1-  0.1-    010422 402  0.2-  0.9-  

010325 474  0.9-  0.2+    010406 413  0.1-  0.5-    010422 402  0.2+  0.9-  

010325 474  0.5-  0.1+    010406 413  0.2+  0.2-    010422 402  0.4+  0.7-  

010325 474  0.4-  0.4+    010406 413  0.2-  1.0-                            

  

NAKANO

         **** Don't distribute anyone except personal use only ****

                (C) Copyright 2001 OAA/ComputingSection

write mail from CFAD0::NAKANO on 2001-04-25 03:32:50(JST).

 



2001 FZ57 

Epoch 2001 Apr. 1.0 TT = JDT 2452000.5                  Nakano

M 217.15321              (2000.0)            P               Q

n   1.07422613     Peri.  339.92445     +0.99097780     -0.01366486

a   0.9442179      Node    22.16880     +0.10056996     +0.73338246

e   0.6046504      Incl.   20.69168     -0.08859282     +0.67967892

P   0.92           H   18.8           G   0.15           U   *

  

NAKANO

         **** Don't distribute anyone except personal use only ****

                (C) Copyright 2001 OAA/ComputingSection

write mail from CFAD0::NAKANO on 2001-04-18 01:15:05(JST).

 





–ß‚è‚Ü‚·B